This is the latest recevied weather packets stored in our database for station/object AI5YA-13. If no packets are shown the sender has not sent any weather packets the latest 10 day(s).
| Time | Temp. | Humidity | Pressure | Rain* | Wind** | Luminosity | Snow |
|---|---|---|---|---|---|---|---|
| 1777852276 | 23.33° C | 39% | 1015.3 hPa | 0 mm | - | 105 W/m² | - |
| 1777851975 | 23.33° C | 39% | 1015.5 hPa | 0 mm | - | 120 W/m² | - |
| 1777851672 | 23.89° C | 38% | 1015.5 hPa | 0 mm | - | 145 W/m² | - |
| 1777851369 | 23.89° C | 38% | 1015.5 hPa | 0 mm | - | 140 W/m² | - |
| 1777851065 | 23.89° C | 39% | 1015.6 hPa | 0 mm | - | 194 W/m² | - |
| 1777850762 | 23.89° C | 38% | 1015.3 hPa | 0 mm | - | 191 W/m² | - |
| 1777850459 | 23.33° C | 38% | 1015.8 hPa | 0 mm | - | 122 W/m² | - |
| 1777850157 | 23.33° C | 38% | 1016 hPa | 0 mm | - | 122 W/m² | - |
| 1777849853 | 23.89° C | 38% | 1015.7 hPa | 0 mm | - | 129 W/m² | - |
| 1777849550 | 23.89° C | 38% | 1015.8 hPa | 0 mm | - | 180 W/m² | - |
| 1777849248 | 24.44° C | 37% | 1015.8 hPa | 0 mm | - | 197 W/m² | - |
| 1777848944 | 23.89° C | 38% | 1015.9 hPa | 0 mm | - | 232 W/m² | - |
| 1777848639 | 24.44° C | 37% | 1016 hPa | 0 mm | - | 223 W/m² | - |
| 1777848337 | 23.89° C | 37% | 1016 hPa | 0 mm | - | 367 W/m² | - |
| 1777848034 | 24.44° C | 36% | 1016.2 hPa | 0 mm | - | 224 W/m² | - |
| 1777847732 | 24.44° C | 36% | 1016.4 hPa | 0 mm | - | 334 W/m² | - |
| 1777847428 | 24.44° C | 36% | 1016.3 hPa | 0 mm | - | 408 W/m² | - |
| 1777847126 | 23.89° C | 38% | 1016.3 hPa | 0 mm | - | 337 W/m² | - |
| 1777846824 | 23.89° C | 37% | 1016.3 hPa | 0 mm | - | 229 W/m² | - |
| 1777846522 | 23.33° C | 38% | 1016.5 hPa | 0 mm | - | 238 W/m² | - |
| 1777846219 | 23.89° C | 37% | 1016.6 hPa | 0 mm | - | 188 W/m² | - |
| 1777845915 | 24.44° C | 36% | 1016.4 hPa | 0 mm | - | 419 W/m² | - |
| 1777845612 | 24.44° C | 36% | 1016.6 hPa | 0 mm | - | 472 W/m² | - |
| 1777845309 | 24.44° C | 37% | 1016.6 hPa | 0 mm | - | 495 W/m² | - |
| 1777845006 | 25° C | 36% | 1016.6 hPa | 0 mm | - | 552 W/m² | - |
* Rain latest hour (hover to see other rain measurements)
** Current wind speed in m/s (hover to see current wind gust speed)